Regional Weather Roundup
Issued by NWS Kansas City/Pleasant Hill, MO

Home | Current Version | Previous Version | Text Only | Print | Product List | Glossary On
Versions: 1 2 3 4 5 6 7 8 9 10 11 12 13 14 15 16 17 18 19 20 21 22 23 24 25 26 27 28 29 30 31 32 33 34 35 36 37 38 39 40 41 42 43 44 45 46 47 48 49 50
000
ASUS43 KEAX 010511
RWREAX

WEATHER ROUNDUP FOR EASTERN KANSAS AND NORTHWEST MISSOURI
NATIONAL WEATHER SERVICE KANSAS CITY/PLEASANT HILL MO
1100 PM CST SAT JAN 31 2015

KSZ040-057-103>105-MOZ028-029-037-043-010600-
...KANSAS CITY METROPOLITAN AREA...

CITY           SKY/WX    TMP DP  RH WIND       PRES   REMARKS
K.C. INTL      LGT SNOW  33  33 100 SE12      29.88F FOG     WCI  24
K.C. DOWNTOWN  LGT SNOW  34  33  96 E5        29.89F FOG     WCI  30
LEES SUMMIT    LGT SNOW  33  32  96 E8        29.89F FOG     WCI  26
OLATHE - IXD   LGT SNOW  34  33  96 SE7       29.88F FOG     WCI  28
OLATHE - OJC   LGT SNOW  33  33 100 SE6       29.87F FOG     WCI  28
LAWRENCE       LGT SNOW  33  32  96 SE7       29.87F FOG     WCI  27

$$

MOZ001>008-011>017-020>025-030>033-038>040-044>046-053-054-010600-
...NORTHERN AND CENTRAL MISSOURI...

CITY           SKY/WX    TMP DP  RH WIND       PRES   REMARKS
ST. JOSEPH     LGT SNOW  32  32 100 E5        29.89F FOG     WCI  27
MOSBY          LGT SNOW  32  32 100 SE3       29.90F
WARRENSBURG    LGT RAIN  34  32  93 E7        29.91F WCI  28
WHITEMAN AFB   LGT RAIN  36  32  87 E6        29.91F WCI  31
CLINTON        LGT RAIN  37  36  93 SE3       29.92S
SEDALIA        LGT RAIN  36  32  85 E8        29.93F WCI  30
WARSAW         NOT AVBL
MARSHALL       MIX PCPN  37  36  93 SE6       29.97S WCI  33
CHILLICOTHE      N/A     33  32  96 SE6       29.94F WCI  28
MOBERLY        MIX PCPN  36  32  87 SE5       29.99F WCI  32
KIRKSVILLE     SNOW      33  33 100 SE14      29.96F VSB 1/2 WCI  23

$$

MOZ041-047>049-056>058-063>065-088>090-097-010600-
...EASTERN AND SOUTHERN MISSOURI...

CITY           SKY/WX    TMP DP  RH WIND       PRES   REMARKS
ST. LOUIS INTL CLOUDY    41  25  53 SE13      30.06F WCI  34
SPIRIT OF STL  CLOUDY    40  24  53 SE6       30.03F
COLUMBIA       LGT RAIN  37  29  72 SE7       29.96F WCI  32
JEFFERSON CITY LGT RAIN  37  28  70 E8        29.98F WCI  31
HANNIBAL       LGT SNOW  36  34  93 E3        30.02F
ROLLA          LGT RAIN  36  26  67 SE15      29.93F WCI  27
LEBANON        MIX PCPN  37  30  75 S16G22    29.92F WCI  28
OSAGE BEACH    CLOUDY    39  27  60 SE9       29.92F WCI  33
SPRINGFIELD    LGT RAIN  38  31  76 S22G29    29.88F WCI  27
BRANSON        CLOUDY    37  32  81 SE10      29.93F WCI  30
NEVADA         DRIZZLE   37  36  93 S5        29.90F WCI  34
JOPLIN         LGT RAIN  39  37  92 S10       29.89F FOG     WCI  32
WEST PLAINS    CLOUDY    38  24  57 SE9G20    30.00F WCI  31

$$

IAZ060-094-KSZ022-034>040-054-083-096-NEZ052-066-093-010600-
...KANSAS...SOUTHEAST NEBRASKA AND IOWA...

CITY           SKY/WX    TMP DP  RH WIND       PRES   REMARKS
TOPEKA         LGT SNOW  33  32  96 E6        29.86F FOG     WCI  28
MANHATTAN      RAIN      34  34 100 E3        29.83S FOG
EMPORIA        LGT RAIN  37  37 100 S13       29.82F WCI  29
CHANUTE        LGT RAIN  39  39 100 S9        29.86F FOG     WCI  33
WICHITA        LGT RAIN  40  40 100 S12       29.81F FOG     WCI  33
OMAHA          LGT SNOW  33  32  96 NE5       29.89F VSB 1   WCI  29
LINCOLN        LGT SNOW  33  31  92 NE5       29.86F VSB 3/4 WCI  29
FALLS CITY     LGT SNOW  32  32 100 SE7       29.85F VSB 1   WCI  26
LAMONI         LGT SNOW  32  32 100 SE10      29.90F FOG     WCI  24
DES MOINES     LGT SNOW  34  31  88 E8        29.95F VSB 3/4 WCI  27

$$



USA.gov is the U.S. government's official web portal to all federal, state and local government web resources and services.